Retour au catalogue

SL-12 DEB

ActifHEO
NORAD 41677·DEBRIS·🇷🇺 Russia

Lancé Oct 26, 2007 depuis Baikonur Cosmodrome

Loading…

Prochains Passages (prochaines 24 heures)

TLE

FraisSource: Space-Track

Époque: Sep 5, 2026, 22:27 UTC

1 41677U 07052J   26248.93609090  .00000029  00000-0  13867-3 0  9996
2 41677  64.9215 170.9924 5631739 222.7654  76.2173  4.38897307191251

Suivez SL-12 DEB en temps réel avec AllMySat

Download on the App Store